| time (UTC) | temp F | wind direction | speed knots | gust knots | rain 1hr in | rain 24hr in | rain mn in | humidity % | barometer mb |
| 20260506034221 | 54 | 239 | 1.7 | 2.6 | 0.00 | 0.00 | 0.00 | 80 | 1015.0 |
| 20260506033721 | 54 | 239 | 1.7 | 3.5 | 0.00 | 0.00 | 0.00 | 79 | 1014.9 |
| 20260506033221 | 54 | 242 | 2.6 | 4.3 | 0.00 | 0.00 | 0.00 | 79 | 1014.8 |
| 20260506032721 | 54 | 242 | 3.5 | 4.3 | 0.00 | 0.00 | 0.00 | 78 | 1014.8 |
| 20260506032220 | 54 | 239 | 3.5 | 5.2 | 0.00 | 0.00 | 0.00 | 78 | 1014.6 |
| 20260506031720 | 54 | 251 | 3.5 | 5.2 | 0.00 | 0.00 | 0.00 | 78 | 1014.5 |
| 20260506031221 | 55 | 200 | 1.7 | 5.2 | 0.00 | 0.00 | 0.00 | 77 | 1014.4 |
| 20260506030721 | 55 | 134 | 1.7 | 8.7 | 0.00 | 0.00 | 0.00 | 77 | 1014.4 |
| 20260506030221 | 55 | 249 | 3.5 | 8.7 | 0.00 | 0.00 | 0.00 | 76 | 1014.3 |
| 20260506025721 | 55 | 271 | 5.2 | 8.7 | 0.00 | 0.00 | 0.00 | 76 | 1014.3 |
| 20260506025220 | 55 | 267 | 6.1 | 8.7 | 0.00 | 0.00 | 0.00 | 77 | 1014.2 |
| 20260506024720 | 54 | 280 | 5.2 | 8.7 | 0.00 | 0.00 | 0.00 | 77 | 1014.1 |
| 20260506024225 | 54 | 286 | 6.1 | 8.7 | 0.00 | 0.00 | 0.00 | 78 | 1014.0 |
| 20260506024220 | 54 | 281 | 6.1 | 8.7 | 0.00 | 0.00 | 0.00 | 78 | 1014.0 |
| 20260506023221 | 54 | 291 | 5.2 | 8.7 | 0.00 | 0.00 | 0.00 | 80 | 1013.9 |
| 20260506022719 | 54 | 297 | 4.3 | 8.7 | 0.00 | 0.00 | 0.00 | 81 | 1013.8 |
| 20260506022219 | 54 | 296 | 4.3 | 8.7 | 0.00 | 0.00 | 0.00 | 80 | 1013.8 |
| 20260506021719 | 55 | 295 | 4.3 | 8.7 | 0.00 | 0.00 | 0.00 | 80 | 1013.8 |
| 20260506021219 | 55 | 289 | 3.5 | 7.8 | 0.00 | 0.00 | 0.00 | 80 | 1013.8 |
| 20260506020719 | 55 | 297 | 3.5 | 7.8 | 0.00 | 0.00 | 0.00 | 80 | 1013.8 |
| 20260506020218 | 55 | 324 | 2.6 | 7.8 | 0.00 | 0.00 | 0.00 | 80 | 1013.7 |
| 20260506015718 | 55 | 250 | 3.5 | 7.8 | 0.00 | 0.00 | 0.00 | 81 | 1013.7 |
| 20260506015218 | 55 | 255 | 2.6 | 7.8 | 0.00 | 0.00 | 0.00 | 83 | 1013.6 |
| 20260506014718 | 54 | 195 | 1.7 | 5.2 | 0.00 | 0.00 | 0.00 | 85 | 1013.7 |
| 20260506014220 | 53 | 215 | 0.9 | 6.1 | 0.00 | 0.00 | 0.00 | 87 | 1013.6 |
| 20260506014216 | 53 | 259 | 0.9 | 5.2 | 0.00 | 0.00 | 0.00 | 86 | 1013.7 |
| 20260506013221 | 52 | 215 | 2.6 | 6.1 | 0.00 | 0.00 | 0.00 | 88 | 1013.7 |
| 20260506013217 | 52 | 198 | 0.9 | 6.1 | 0.00 | 0.00 | 0.00 | 88 | 1013.7 |
| 20260506012823 | 52 | 180 | 3.5 | 6.1 | 0.00 | 0.00 | 0.00 | 87 | 1013.6 |
| 20260506011717 | 53 | 165 | 4.3 | 7.0 | 0.00 | 0.00 | 0.00 | 87 | 1013.7 |
| 20260506011221 | 54 | 203 | 3.5 | 6.1 | 0.00 | 0.00 | 0.00 | 84 | 1013.6 |
| 20260506011217 | 53 | 179 | 4.3 | 7.0 | 0.00 | 0.00 | 0.00 | 86 | 1013.6 |
| 20260506010217 | 54 | 194 | 3.5 | 6.1 | 0.00 | 0.00 | 0.00 | 83 | 1013.6 |
| 20260506005721 | 54 | 184 | 3.5 | 7.0 | 0.00 | 0.00 | 0.00 | 84 | 1013.6 |
| 20260506005717 | 54 | 173 | 3.5 | 6.1 | 0.00 | 0.00 | 0.00 | 84 | 1013.6 |
| 20260506004716 | 53 | 201 | 4.3 | 7.0 | 0.00 | 0.00 | 0.00 | 85 | 1013.5 |
| 20260506004221 | 52 | 198 | 2.6 | 4.3 | 0.00 | 0.00 | 0.00 | 89 | 1013.4 |
| 20260506004217 | 53 | 193 | 3.5 | 6.1 | 0.00 | 0.00 | 0.00 | 88 | 1013.5 |
| 20260506003217 | 52 | 211 | 2.6 | 4.3 | 0.00 | 0.00 | 0.00 | 89 | 1013.4 |
| 20260506002720 | 52 | 222 | 3.5 | 5.2 | 0.00 | 0.00 | 0.00 | 91 | 1013.5 |
| 20260506002716 | 52 | 216 | 2.6 | 4.3 | 0.00 | 0.00 | 0.00 | 91 | 1013.4 |
| 20260506001717 | 52 | 220 | 3.5 | 5.2 | 0.00 | 0.00 | 0.00 | 91 | 1013.5 |
| 20260506001216 | 52 | 218 | 3.5 | 5.2 | 0.00 | 0.00 | 0.00 | 91 | 1013.4 |
| 20260506000716 | 52 | 217 | 3.5 | 7.0 | 0.00 | 0.00 | 0.00 | 91 | 1013.4 |
| 20260506000214 | 52 | 205 | 3.5 | 7.0 | 0.00 | 0.00 | 0.00 | 91 | 1013.4 |
| 20260505235714 | 52 | 192 | 4.3 | 7.0 | 0.00 | 0.00 | 0.00 | 91 | 1013.2 |
| 20260505235213 | 51 | 190 | 4.3 | 7.0 | 0.00 | 0.00 | 0.00 | 91 | 1013.4 |
| 20260505234714 | 51 | 196 | 4.3 | 7.0 | 0.00 | 0.00 | 0.00 | 90 | 1013.2 |
| 20260505234214 | 51 | 191 | 5.2 | 9.6 | 0.00 | 0.00 | 0.00 | 90 | 1013.4 |
| 20260505233718 | 53 | 201 | 7.0 | 13.9 | 0.00 | 0.00 | 0.00 | 88 | 1013.4 |
| 20260505233714 | 52 | 182 | 6.1 | 10.4 | 0.00 | 0.00 | 0.00 | 89 | 1013.2 |
| 20260505232716 | 54 | 197 | 7.8 | 13.9 | 0.00 | 0.00 | 0.00 | 87 | 1013.2 |
| 20260505232712 | 54 | 186 | 7.8 | 13.0 | 0.00 | 0.00 | 0.00 | 87 | 1013.2 |
| 20260505232319 | 54 | 184 | 7.8 | 13.9 | 0.00 | 0.00 | 0.00 | 87 | 1013.2 |
| 20260505231212 | 54 | 178 | 7.8 | 13.9 | 0.00 | 0.00 | 0.00 | 87 | 1013.2 |
| 20260505230712 | 54 | 188 | 7.8 | 12.2 | 0.00 | 0.00 | 0.00 | 86 | 1013.2 |
| 20260505230212 | 54 | 169 | 7.8 | 12.2 | 0.00 | 0.00 | 0.00 | 86 | 1013.2 |
| 20260505225712 | 54 | 213 | 7.8 | 13.0 | 0.00 | 0.00 | 0.00 | 86 | 1013.4 |
| 20260505225213 | 53 | 191 | 8.7 | 13.9 | 0.00 | 0.00 | 0.00 | 87 | 1013.4 |
| 20260505224712 | 53 | 167 | 8.7 | 15.6 | 0.00 | 0.00 | 0.00 | 86 | 1013.4 |
| 20260505224213 | 54 | 157 | 8.7 | 15.6 | 0.00 | 0.00 | 0.00 | 84 | 1013.2 |
| 20260505223716 | 56 | 186 | 9.6 | 15.6 | 0.00 | 0.00 | 0.00 | 83 | 1013.2 |
| 20260505223712 | 56 | 171 | 8.7 | 15.6 | 0.00 | 0.00 | 0.00 | 83 | 1013.4 |
| 20260505222711 | 56 | 180 | 8.7 | 15.6 | 0.00 | 0.00 | 0.00 | 82 | 1013.4 |
| 20260505222211 | 56 | 169 | 8.7 | 15.6 | 0.00 | 0.00 | 0.00 | 82 | 1013.4 |
| 20260505221711 | 55 | 177 | 7.8 | 15.6 | 0.00 | 0.00 | 0.00 | 82 | 1013.6 |
| 20260505221211 | 54 | 199 | 7.0 | 12.2 | 0.00 | 0.00 | 0.00 | 85 | 1013.5 |
| 20260505220711 | 54 | 155 | 6.1 | 12.2 | 0.00 | 0.00 | 0.00 | 86 | 1013.6 |
| 20260505220211 | 53 | 184 | 6.1 | 10.4 | 0.00 | 0.00 | 0.00 | 85 | 1013.7 |
| 20260505215711 | 52 | 211 | 7.0 | 12.2 | 0.00 | 0.00 | 0.00 | 84 | 1013.7 |
| 20260505215211 | 51 | 205 | 7.8 | 12.2 | 0.00 | 0.00 | 0.00 | 84 | 1013.7 |
| 20260505214712 | 51 | 220 | 8.7 | 12.2 | 0.00 | 0.00 | 0.00 | 85 | 1013.8 |
| 20260505214211 | 50 | 202 | 8.7 | 11.3 | 0.00 | 0.00 | 0.00 | 87 | 1013.7 |
| 20260505213711 | 50 | 209 | 8.7 | 10.4 | 0.00 | 0.00 | 0.00 | 88 | 1013.8 |
| 20260505213208 | 50 | 201 | 7.8 | 10.4 | 0.00 | 0.00 | 0.00 | 88 | 1013.8 |
| 20260505212708 | 50 | 209 | 7.8 | 10.4 | 0.00 | 0.00 | 0.00 | 89 | 1013.9 |
| 20260505212214 | 51 | 196 | 8.7 | 10.4 | 0.00 | 0.00 | 0.00 | 85 | 1013.9 |
| 20260505212208 | 51 | 200 | 7.8 | 10.4 | 0.00 | 0.00 | 0.00 | 87 | 1013.9 |
| 20260505211815 | 51 | 199 | 7.8 | 10.4 | 0.00 | 0.00 | 0.00 | 83 | 1014.0 |
| 20260505211315 | 52 | 205 | 7.8 | 10.4 | 0.00 | 0.00 | 0.00 | 82 | 1014.0 |
| 20260505210208 | 52 | 190 | 7.8 | 11.3 | 0.00 | 0.00 | 0.00 | 80 | 1013.9 |
| 20260505205708 | 52 | 194 | 8.7 | 13.9 | 0.00 | 0.00 | 0.00 | 81 | 1013.9 |
| 20260505205208 | 53 | 175 | 9.6 | 14.8 | 0.00 | 0.00 | 0.00 | 81 | 1013.9 |
| 20260505204708 | 53 | 190 | 9.6 | 14.8 | 0.00 | 0.00 | 0.00 | 80 | 1014.0 |
| 20260505204208 | 53 | 184 | 9.6 | 14.8 | 0.00 | 0.00 | 0.00 | 79 | 1013.9 |
| 20260505203708 | 54 | 178 | 10.4 | 14.8 | 0.00 | 0.00 | 0.00 | 77 | 1013.8 |
| 20260505203208 | 55 | 188 | 9.6 | 17.4 | 0.00 | 0.00 | 0.00 | 74 | 1013.8 |
| 20260505202708 | 56 | 174 | 8.7 | 17.4 | 0.00 | 0.00 | 0.00 | 77 | 1013.7 |
| 20260505202214 | 55 | 188 | 9.6 | 13.9 | 0.00 | 0.00 | 0.00 | 82 | 1013.7 |
| 20260505202208 | 55 | 185 | 9.6 | 13.9 | 0.00 | 0.00 | 0.00 | 80 | 1013.7 |
| 20260505201208 | 54 | 192 | 8.7 | 13.0 | 0.00 | 0.00 | 0.00 | 82 | 1013.8 |
| 20260505200707 | 54 | 192 | 8.7 | 14.8 | 0.00 | 0.00 | 0.00 | 81 | 1013.8 |
| 20260505200205 | 54 | 205 | 8.7 | 14.8 | 0.00 | 0.00 | 0.00 | 82 | 1013.8 |
| 20260505195706 | 54 | 182 | 9.6 | 15.6 | 0.00 | 0.00 | 0.00 | 83 | 1013.8 |
| 20260505195211 | 53 | 196 | 8.7 | 13.9 | 0.00 | 0.00 | 0.00 | 83 | 1013.8 |
| 20260505195205 | 53 | 175 | 9.6 | 15.6 | 0.00 | 0.00 | 0.00 | 83 | 1013.7 |
| 20260505194206 | 53 | 190 | 7.8 | 11.3 | 0.00 | 0.00 | 0.00 | 80 | 1013.9 |
| 20260505193712 | 54 | 183 | 8.7 | 13.9 | 0.00 | 0.00 | 0.00 | 77 | 1014.0 |
| 20260505193706 | 54 | 175 | 7.8 | 12.2 | 0.00 | 0.00 | 0.00 | 79 | 1014.0 |
| 20260505192706 | 55 | 209 | 7.8 | 13.9 | 0.00 | 0.00 | 0.00 | 77 | 1014.0 |
| 20260505192207 | 56 | 196 | 7.0 | 14.8 | 0.00 | 0.00 | 0.00 | 77 | 1014.0 |
| 20260505192203 | 56 | 209 | 7.0 | 14.8 | 0.00 | 0.00 | 0.00 | 76 | 1014.0 |
| 20260505191204 | 55 | 167 | 7.0 | 13.0 | 0.00 | 0.00 | 0.00 | 78 | 1014.0 |
| 20260505190704 | 54 | 182 | 7.0 | 13.0 | 0.00 | 0.00 | 0.00 | 79 | 1013.9 |
| 20260505190204 | 53 | 208 | 7.8 | 11.3 | 0.00 | 0.00 | 0.00 | 82 | 1014.0 |
| 20260505185707 | 53 | 178 | 6.1 | 9.6 | 0.00 | 0.00 | 0.00 | 78 | 1014.1 |
| 20260505185703 | 53 | 168 | 7.0 | 11.3 | 0.00 | 0.00 | 0.00 | 82 | 1014.0 |
| 20260505184703 | 54 | 173 | 6.1 | 11.3 | 0.00 | 0.00 | 0.00 | 81 | 1014.0 |
| 20260505184204 | 54 | 142 | 6.1 | 11.3 | 0.00 | 0.00 | 0.00 | 80 | 1013.9 |
| 20260505183703 | 54 | 147 | 5.2 | 9.6 | 0.00 | 0.00 | 0.00 | 80 | 1014.0 |
| 20260505183208 | 54 | 205 | 4.3 | 10.4 | 0.00 | 0.00 | 0.00 | 83 | 1013.9 |
| 20260505183204 | 55 | 171 | 5.2 | 10.4 | 0.00 | 0.00 | 0.00 | 81 | 1013.9 |
| 20260505182207 | 53 | 188 | 4.3 | 7.8 | 0.00 | 0.00 | 0.00 | 82 | 1013.9 |
| 20260505182203 | 53 | 202 | 4.3 | 7.8 | 0.00 | 0.00 | 0.00 | 83 | 1013.9 |
| 20260505181811 | 53 | 161 | 5.2 | 7.8 | 0.00 | 0.00 | 0.00 | 82 | 1014.0 |
| 20260505180708 | 54 | 192 | 5.2 | 8.7 | 0.00 | 0.00 | 0.00 | 81 | 1013.9 |
| 20260505180704 | 53 | 196 | 5.2 | 7.8 | 0.00 | 0.00 | 0.00 | 81 | 1013.9 |
| 20260505175708 | 55 | 178 | 4.3 | 7.8 | 0.00 | 0.00 | 0.00 | 83 | 1013.9 |
| 20260505175704 | 55 | 180 | 5.2 | 8.7 | 0.00 | 0.00 | 0.00 | 81 | 1013.8 |
| 20260505174703 | 55 | 186 | 4.3 | 8.7 | 0.00 | 0.00 | 0.00 | 85 | 1013.7 |
| 20260505174203 | 54 | 196 | 4.3 | 8.7 | 0.00 | 0.00 | 0.00 | 85 | 1013.6 |
| 20260505173704 | 54 | 180 | 4.3 | 7.8 | 0.00 | 0.00 | 0.00 | 86 | 1013.6 |
| 20260505173203 | 53 | 183 | 4.3 | 7.8 | 0.00 | 0.00 | 0.00 | 87 | 1013.7 |
| 20260505172703 | 53 | 198 | 4.3 | 7.8 | 0.00 | 0.00 | 0.00 | 87 | 1013.5 |
| 20260505172204 | 53 | 215 | 3.5 | 6.1 | 0.00 | 0.00 | 0.00 | 87 | 1013.5 |
| 20260505172200 | 53 | 207 | 4.3 | 7.0 | 0.00 | 0.00 | 0.00 | 87 | 1013.5 |
| 20260505171808 | 53 | 169 | 2.6 | 5.2 | 0.00 | 0.00 | 0.00 | 85 | 1013.6 |
| 20260505170700 | 53 | 193 | 1.7 | 6.1 | 0.00 | 0.00 | 0.00 | 85 | 1013.5 |
| 20260505170201 | 53 | 217 | 1.7 | 6.1 | 0.00 | 0.00 | 0.00 | 84 | 1013.6 |
| 20260505165701 | 54 | 171 | 1.7 | 4.3 | 0.00 | 0.00 | 0.00 | 83 | 1013.4 |
| 20260505165201 | 54 | 130 | 2.6 | 6.1 | 0.00 | 0.00 | 0.00 | 84 | 1013.4 |
| 20260505164701 | 54 | 141 | 1.7 | 6.1 | 0.00 | 0.00 | 0.00 | 83 | 1013.1 |
| 20260505164206 | 54 | 162 | 0.0 | 3.5 | 0.00 | 0.00 | 0.00 | 78 | 1013.1 |
| 20260505164201 | 54 | 171 | 0.9 | 4.3 | 0.00 | 0.00 | 0.00 | 80 | 1013.2 |
| 20260505163201 | 54 | 161 | 0.0 | 2.6 | 0.00 | 0.00 | 0.00 | 80 | 1013.2 |
| 20260505162701 | 53 | 133 | 0.0 | 2.6 | 0.00 | 0.00 | 0.00 | 78 | 1013.2 |
| 20260505162205 | 54 | 191 | 0.9 | 3.5 | 0.00 | 0.00 | 0.00 | 78 | 1013.0 |
| 20260505162201 | 54 | 186 | 0.9 | 3.5 | 0.00 | 0.00 | 0.00 | 81 | 1013.0 |
| 20260505161201 | 54 | 197 | 0.0 | 2.6 | 0.00 | 0.00 | 0.00 | 76 | 1012.9 |
| 20260505160701 | 54 | 180 | 0.9 | 2.6 | 0.00 | 0.00 | 0.00 | 76 | 1012.8 |
| 20260505160201 | 53 | 226 | 1.7 | 6.1 | 0.00 | 0.00 | 0.00 | 73 | 1012.9 |
| 20260505153159 | 53 | 249 | 0.9 | 6.1 | 0.00 | 0.00 | 0.00 | 71 | 1012.8 |
| 20260505152700 | 53 | 252 | 0.9 | 3.5 | 0.00 | 0.00 | 0.00 | 73 | 1012.7 |
| 20260505152200 | 53 | 213 | 0.9 | 4.3 | 0.00 | 0.00 | 0.00 | 77 | 1012.8 |
| 20260505151659 | 53 | 189 | 1.7 | 5.2 | 0.00 | 0.00 | 0.00 | 77 | 1012.8 |
| 20260505151203 | 52 | 192 | 0.9 | 2.6 | 0.00 | 0.00 | 0.00 | 80 | 1012.7 |
| 20260505151159 | 53 | 169 | 0.9 | 5.2 | 0.00 | 0.00 | 0.00 | 80 | 1012.7 |
| 20260505150159 | 51 | 186 | 1.7 | 4.3 | 0.00 | 0.00 | 0.00 | 81 | 1012.7 |
| 20260505130152 | 49 | 269 | 10.4 | 13.0 | 0.00 | 0.00 | 0.00 | 85 | 1012.0 |
| 20260505124656 | 49 | 256 | 6.1 | 10.4 | 0.00 | 0.00 | 0.00 | 83 | 1012.1 |
| 20260505124652 | 49 | 254 | 6.1 | 9.6 | 0.00 | 0.00 | 0.00 | 84 | 1012.0 |
| 20260505123651 | 49 | 264 | 7.0 | 10.4 | 0.00 | 0.00 | 0.00 | 83 | 1012.1 |
| 20260505123149 | 49 | 274 | 7.8 | 10.4 | 0.00 | 0.00 | 0.00 | 82 | 1012.1 |
| 20260505122649 | 49 | 279 | 7.8 | 10.4 | 0.00 | 0.00 | 0.00 | 82 | 1012.0 |
| 20260505122149 | 49 | 277 | 7.0 | 11.3 | 0.00 | 0.00 | 0.00 | 81 | 1012.0 |
| 20260505121649 | 49 | 282 | 6.1 | 11.3 | 0.00 | 0.00 | 0.00 | 81 | 1012.0 |
| 20260505121149 | 49 | 288 | 5.2 | 8.7 | 0.00 | 0.00 | 0.00 | 81 | 1012.0 |
| 20260505120649 | 49 | 296 | 5.2 | 7.8 | 0.00 | 0.00 | 0.00 | 81 | 1012.0 |
| 20260505120148 | 49 | 284 | 5.2 | 7.8 | 0.00 | 0.00 | 0.00 | 83 | 1012.0 |
| 20260505115649 | 49 | 273 | 6.1 | 7.8 | 0.00 | 0.00 | 0.00 | 84 | 1012.2 |
| 20260505115148 | 49 | 277 | 6.1 | 7.8 | 0.00 | 0.00 | 0.00 | 84 | 1012.2 |
| 20260505114648 | 49 | 270 | 4.3 | 7.8 | 0.00 | 0.00 | 0.00 | 86 | 1012.3 |
| 20260505114148 | 49 | 278 | 1.7 | 5.2 | 0.00 | 0.00 | 0.00 | 87 | 1012.3 |
| 20260505113649 | 49 | 220 | 2.6 | 4.3 | 0.00 | 0.00 | 0.00 | 86 | 1012.2 |
| 20260505113149 | 49 | 193 | 3.5 | 4.3 | 0.00 | 0.00 | 0.00 | 86 | 1012.2 |
| 20260505112649 | 49 | 203 | 3.5 | 6.1 | 0.00 | 0.00 | 0.00 | 86 | 1012.1 |
| 20260505112155 | 49 | 204 | 5.2 | 7.0 | 0.00 | 0.00 | 0.00 | 85 | 1012.2 |
| 20260505112149 | 49 | 204 | 4.3 | 6.1 | 0.00 | 0.00 | 0.00 | 85 | 1012.2 |
| 20260505111756 | 49 | 198 | 5.2 | 7.0 | 0.00 | 0.00 | 0.00 | 84 | 1012.1 |
| 20260505110649 | 49 | 200 | 5.2 | 6.1 | 0.00 | 0.00 | 0.00 | 84 | 1012.2 |
| 20260505110148 | 49 | 209 | 4.3 | 6.1 | 0.00 | 0.00 | 0.00 | 83 | 1012.2 |
| 20260505101642 | 49 | 278 | 3.5 | 6.1 | 0.00 | 0.00 | 0.00 | 87 | 1012.3 |
| 20260505101142 | 49 | 247 | 1.7 | 4.3 | 0.00 | 0.00 | 0.00 | 88 | 1012.3 |
| 20260505100646 | 49 | 189 | 0.9 | 2.6 | 0.00 | 0.00 | 0.00 | 89 | 1012.4 |
| 20260505100642 | 49 | 202 | 0.0 | 2.6 | 0.00 | 0.00 | 0.00 | 89 | 1012.4 |
| 20260505095642 | 49 | 189 | 0.9 | 2.6 | 0.00 | 0.00 | 0.00 | 89 | 1012.4 |
| 20260505095142 | 49 | 190 | 0.9 | 2.6 | 0.00 | 0.00 | 0.00 | 88 | 1012.5 |
| 20260505094642 | 49 | 190 | 1.7 | 7.8 | 0.00 | 0.00 | 0.00 | 88 | 1012.5 |
| 20260505094143 | 49 | 190 | 2.6 | 7.8 | 0.00 | 0.00 | 0.00 | 87 | 1012.6 |
| 20260505093644 | 49 | 190 | 4.3 | 7.8 | 0.00 | 0.00 | 0.00 | 86 | 1012.5 |
| 20260505093147 | 49 | 240 | 5.2 | 10.4 | 0.00 | 0.00 | 0.00 | 86 | 1012.7 |
| 20260505093143 | 49 | 227 | 5.2 | 7.8 | 0.00 | 0.00 | 0.00 | 86 | 1012.6 |
| 20260505092145 | 50 | 243 | 7.8 | 10.4 | 0.00 | 0.00 | 0.00 | 85 | 1012.9 |
| 20260505092140 | 50 | 209 | 6.1 | 10.4 | 0.00 | 0.00 | 0.00 | 85 | 1012.8 |
| 20260505091747 | 49 | 254 | 8.7 | 10.4 | 0.00 | 0.00 | 0.00 | 85 | 1013.0 |
| 20260505090640 | 49 | 254 | 8.7 | 11.3 | 0.00 | 0.00 | 0.00 | 86 | 1013.0 |
| 20260505090140 | 49 | 261 | 8.7 | 12.2 | 0.00 | 0.00 | 0.00 | 87 | 1013.0 |
| 20260505085640 | 49 | 265 | 8.7 | 12.2 | 0.00 | 0.00 | 0.00 | 88 | 1013.0 |
| 20260505085140 | 49 | 263 | 7.0 | 10.4 | 0.00 | 0.00 | 0.00 | 90 | 1013.0 |
| 20260505084640 | 49 | 269 | 6.1 | 9.6 | 0.00 | 0.00 | 0.00 | 91 | 1013.1 |
| 20260505084140 | 49 | 290 | 5.2 | 7.8 | 0.00 | 0.00 | 0.00 | 91 | 1013.2 |
| 20260505083640 | 49 | 295 | 7.0 | 9.6 | 0.00 | 0.00 | 0.00 | 90 | 1013.4 |
| 20260505083138 | 49 | 307 | 7.8 | 9.6 | 0.00 | 0.00 | 0.00 | 90 | 1013.4 |
| 20260505082642 | 49 | 302 | 5.2 | 8.7 | 0.00 | 0.00 | 0.00 | 90 | 1013.4 |
| 20260505082638 | 49 | 302 | 7.0 | 9.6 | 0.00 | 0.00 | 0.00 | 89 | 1013.2 |
| 20260505081638 | 49 | 294 | 5.2 | 7.8 | 0.00 | 0.00 | 0.00 | 91 | 1013.4 |
| 20260505081137 | 49 | 304 | 5.2 | 7.8 | 0.00 | 0.00 | 0.00 | 91 | 1013.4 |
| 20260505080637 | 49 | 289 | 6.1 | 10.4 | 0.00 | 0.00 | 0.00 | 91 | 1013.5 |
| 20260505080138 | 49 | 283 | 7.0 | 10.4 | 0.00 | 0.00 | 0.00 | 92 | 1013.5 |
| 20260505075642 | 49 | 277 | 6.1 | 8.7 | 0.00 | 0.00 | 0.00 | 91 | 1013.6 |
| 20260505075638 | 49 | 295 | 7.0 | 9.6 | 0.00 | 0.00 | 0.00 | 91 | 1013.5 |
| 20260505074641 | 49 | 240 | 6.1 | 9.6 | 0.00 | 0.00 | 0.00 | 90 | 1013.6 |
| 20260505074637 | 49 | 229 | 6.1 | 9.6 | 0.00 | 0.00 | 0.00 | 90 | 1013.6 |
| 20260505073637 | 49 | 246 | 6.1 | 9.6 | 0.00 | 0.00 | 0.00 | 91 | 1013.7 |
| 20260505073138 | 49 | 257 | 7.0 | 9.6 | 0.00 | 0.00 | 0.00 | 92 | 1013.7 |
| 20260505072638 | 49 | 244 | 7.0 | 9.6 | 0.00 | 0.00 | 0.00 | 92 | 1013.7 |
| 20260505072136 | 49 | 259 | 7.0 | 11.3 | 0.00 | 0.00 | 0.00 | 93 | 1013.7 |
| 20260505071636 | 49 | 350 | 7.0 | 11.3 | 0.00 | 0.00 | 0.00 | 93 | 1013.7 |
| 20260505071135 | 49 | 300 | 7.0 | 12.2 | 0.00 | 0.00 | 0.00 | 94 | 1013.7 |
| 20260505070635 | 49 | 251 | 7.8 | 12.2 | 0.00 | 0.00 | 0.00 | 94 | 1013.7 |
| 20260505070140 | 49 | 246 | 9.6 | 13.0 | 0.00 | 0.00 | 0.00 | 94 | 1013.6 |
| 20260505070136 | 49 | 252 | 8.7 | 13.0 | 0.00 | 0.00 | 0.00 | 94 | 1013.6 |
| 20260505065135 | 49 | 254 | 9.6 | 13.0 | 0.00 | 0.00 | 0.00 | 94 | 1013.5 |
| 20260505064745 | 49 | 263 | 7.8 | 10.4 | 0.00 | 0.00 | 0.00 | 94 | 1013.7 |
| 20260505064635 | 49 | 252 | 9.6 | 13.0 | 0.00 | 0.00 | 0.00 | 94 | 1013.6 |
| 20260505064140 | 49 | 263 | 8.7 | 11.3 | 0.00 | 0.00 | 0.00 | 94 | 1013.7 |
| 20260505064135 | 49 | 243 | 8.7 | 13.0 | 0.00 | 0.00 | 0.00 | 94 | 1013.6 |
| 20260505062635 | 49 | 328 | 7.0 | 10.4 | 0.00 | 0.00 | 0.00 | 93 | 1013.7 |
| 20260505062136 | 49 | 292 | 4.3 | 9.6 | 0.00 | 0.00 | 0.00 | 93 | 1013.8 |
| 20260505061636 | 50 | 276 | 3.5 | 6.1 | 0.00 | 0.00 | 0.00 | 93 | 1013.8 |
| 20260505061135 | 50 | 279 | 3.5 | 7.0 | 0.00 | 0.00 | 0.00 | 92 | 1013.8 |
| 20260505060633 | 50 | 273 | 2.6 | 7.0 | 0.00 | 0.00 | 0.00 | 92 | 1013.8 |
| 20260505060133 | 50 | 266 | 2.6 | 5.2 | 0.00 | 0.00 | 0.00 | 91 | 1013.8 |
| 20260505055633 | 50 | 319 | 1.7 | 5.2 | 0.00 | 0.00 | 0.00 | 91 | 1013.8 |
| 20260505055133 | 50 | 286 | 1.7 | 5.2 | 0.00 | 0.00 | 0.00 | 90 | 1013.8 |
| 20260505054633 | 50 | 288 | 0.9 | 3.5 | 0.00 | 0.00 | 0.00 | 90 | 1013.8 |
| 20260505054131 | 50 | 255 | 1.7 | 5.2 | 0.00 | 0.00 | 0.00 | 89 | 1013.7 |
| 20260505053633 | 50 | 230 | 2.6 | 5.2 | 0.00 | 0.00 | 0.00 | 88 | 1013.7 |
| 20260505053131 | 50 | 266 | 1.7 | 5.2 | 0.00 | 0.00 | 0.00 | 88 | 1013.8 |
| 20260505052631 | 50 | 274 | 1.7 | 5.2 | 0.00 | 0.00 | 0.00 | 90 | 1013.9 |
| 20260505052131 | 50 | 286 | 1.7 | 3.5 | 0.00 | 0.00 | 0.00 | 90 | 1013.9 |
| 20260505051632 | 50 | 275 | 0.9 | 3.5 | 0.00 | 0.00 | 0.00 | 89 | 1013.9 |
| 20260505051131 | 50 | 275 | 0.9 | 3.5 | 0.00 | 0.00 | 0.00 | 89 | 1013.9 |
| 20260505050631 | 50 | 275 | 0.9 | 6.1 | 0.00 | 0.00 | 0.00 | 90 | 1013.9 |
| 20260505050130 | 50 | 275 | 0.9 | 6.1 | 0.00 | 0.00 | 0.00 | 91 | 1013.8 |
| 20260505041629 | 50 | 273 | 4.3 | 7.8 | 0.00 | 0.00 | 0.00 | 92 | 1014.0 |
| 20260505041127 | 50 | 257 | 2.6 | 6.1 | 0.00 | 0.00 | 0.00 | 92 | 1014.0 |
| 20260505040627 | 50 | 261 | 2.6 | 5.2 | 0.00 | 0.00 | 0.00 | 92 | 1014.0 |
| 20260505040132 | 50 | 312 | 2.6 | 4.3 | 0.00 | 0.00 | 0.00 | 93 | 1014.1 |
| 20260505040127 | 50 | 279 | 2.6 | 5.2 | 0.00 | 0.00 | 0.00 | 92 | 1014.0 |
| 20260505035734 | 50 | 300 | 2.6 | 4.3 | 0.00 | 0.00 | 0.00 | 93 | 1014.0 |
| 20260505034627 | 50 | 297 | 1.7 | 4.3 | 0.00 | 0.00 | 0.00 | 94 | 1014.0 |